Location: Cahas Mountain Overlook
(37.0833°N, 80.1000°W)
Time: 10:41:37
(UTC-04:00)

Vanguard 1 Rocket - Pass Details

Date: 10 February 2026
Orbit: 653 x 4214 km, 34.3° (Epoch: 15 March)

Event Time Altitude Azimuth Distance (km) Brightness Sun altitude
Rises 23:36:35 0° 284° (WNW) 8,330 12.6 -63.6°
Reaches altitude 10° 23:44:49 10° 271° (W) 7,416 12.1 -64.4°
Enters shadow 23:58:33 20° 239° (WSW) 6,254 11.4 -65.6°
